Location: Unspecified
(0.0000°N, 0.0000°E)
Time: 19:07:39
(UTC+00:00)

Shinsei - Visible Passes

Search period start: 17 May 2026 00:00
Search period end: 27 May 2026 00:00
Orbit: 869 x 1860 km, 32.1° (Epoch: 17 May)

Date Brightness Start Highest point End Pass type
(mag) Time Alt. Az. Time Alt. Az. Time Alt. Az.
17 May 12.3 01:35:36 23° NNE 01:35:36 23° NNE 01:39:11 10° NE visible
17 May 12.2 03:28:31 16° NW 03:31:05 18° NNW 03:37:34 10° NNE visible
18 May 12.1 02:03:33 26° N 02:03:33 26° N 02:08:48 10° NNE visible
18 May 12.6 03:59:38 10° NW 04:02:32 11° NNW 04:05:22 10° N visible
19 May 12.9 00:38:32 11° NE 00:38:32 11° NE 00:38:52 10° NE visible
19 May 12.2 02:31:27 21° NNW 02:31:27 21° NNW 02:38:03 10° NNE visible
20 May 12.6 01:06:23 17° NNE 01:06:23 17° NNE 01:08:40 10° NNE visible
20 May 12.5 02:59:17 13° NW 03:01:38 14° NNW 03:06:46 10° N visible
20 May 11.9 19:21:08 10° S 19:22:23 11° SSE 19:22:23 11° SSE visible
21 May 12.5 01:34:10 19° N 01:34:10 19° N 01:38:07 10° NNE visible
21 May 11.7 19:48:43 10° SSW 19:51:10 16° S 19:51:10 16° S visible
22 May 12.5 02:01:56 16° NNW 02:01:56 16° NNW 02:07:11 10° NNE visible
22 May 11.7 20:17:40 10° SSW 20:20:05 20° SSW 20:20:05 20° SSW visible
23 May 12.8 00:36:44 13° NNE 00:36:44 13° NNE 00:37:52 10° NNE visible
23 May 12.7 02:29:38 10° NNW 02:32:24 11° NNW 02:35:22 10° N visible
23 May 11.5 18:50:20 10° S 18:54:29 15° SSE 18:56:09 14° SE visible
23 May 11.8 20:47:09 10° SW 20:49:10 20° SW 20:49:10 20° SW visible
24 May 12.7 01:04:24 15° N 01:04:24 15° N 01:07:08 10° NNE visible
24 May 11.0 19:18:42 10° SSW 19:25:00 27° SE 19:25:24 26° SE visible
24 May 12.1 21:17:08 10° SW 21:18:26 16° SW 21:18:26 16° SW visible
25 May 12.7 01:32:01 13° NNW 01:32:01 13° NNW 01:35:54 10° N visible
25 May 10.4 19:47:56 10° SW 19:54:52 45° SSE 19:54:52 45° SSE visible
25 May 12.5 21:47:38 10° WSW 21:47:55 11° WSW 21:47:55 11° WSW visible
26 May 12.9 00:06:42 10° NNE 00:06:42 10° NNE 00:06:46 10° NNE visible
26 May 11.2 18:20:04 10° S 18:25:02 20° SE 18:30:42 10° ESE visible
26 May 10.1 20:17:42 10° SW 20:24:35 70° SSW 20:24:35 70° SSW visible
